This is the latest recevied weather packets stored in our database for station/object AB4CZ-1. If no packets are shown the sender has not sent any weather packets the latest 10 day(s).
| Time | Temp. | Humidity | Pressure | Rain* | Wind** | Luminosity | Snow |
|---|---|---|---|---|---|---|---|
| 1778124393 | 18.89° C | 98% | 1014.4 hPa | 19.81 mm | - | - | - |
| 1778123793 | 18.89° C | 98% | 1014.4 hPa | 17.02 mm | - | - | - |
| 1778123493 | 18.89° C | 97% | 1015 hPa | 16.51 mm | - | - | - |
| 1778123193 | 18.89° C | 97% | 1014.7 hPa | 17.02 mm | - | - | - |
| 1778122893 | 18.89° C | 97% | 1014.7 hPa | 13.97 mm | - | - | - |
| 1778122593 | 18.89° C | 97% | 1014.7 hPa | 11.18 mm | - | - | - |
| 1778122293 | 18.89° C | 97% | 1014.5 hPa | 11.18 mm | - | - | - |
| 1778121993 | 18.89° C | 97% | 1014.4 hPa | 11.18 mm | - | - | - |
| 1778121763 | 18.89° C | 97% | 1014.9 hPa | 10.41 mm | - | - | - |
| 1778121693 | 18.89° C | 97% | 1014.9 hPa | 10.41 mm | - | - | - |
| 1778121398 | 18.89° C | 97% | 1014.7 hPa | 9.65 mm | - | - | - |
| 1778121093 | 19.44° C | 97% | 1014.1 hPa | 9.14 mm | - | - | - |
| 1778120793 | 19.44° C | 97% | 1014.3 hPa | 9.14 mm | - | - | - |
| 1778120493 | 19.44° C | 97% | 1014.6 hPa | 9.14 mm | - | - | - |
| 1778120193 | 19.44° C | 97% | 1014.1 hPa | 9.4 mm | - | - | - |
| 1778119899 | 19.44° C | 97% | 1014.1 hPa | 9.14 mm | - | - | - |
| 1778119294 | 19.44° C | 96% | 1014.1 hPa | 9.4 mm | - | - | - |
| 1778118993 | 19.44° C | 96% | 1013.9 hPa | 9.65 mm | - | - | - |
| 1778118448 | 20° C | 95% | 1013.4 hPa | 9.4 mm | - | - | - |
| 1778118394 | 20° C | 95% | 1013.4 hPa | 9.4 mm | - | - | - |
| 1778118093 | 21.11° C | 95% | 1014.5 hPa | 5.33 mm | - | - | - |
| 1778117493 | 21.67° C | 97% | 1014.1 hPa | 3.3 mm | - | - | - |
| 1778117193 | 21.67° C | 97% | 1013.9 hPa | 3.3 mm | - | - | - |
| 1778116893 | 21.67° C | 97% | 1013.9 hPa | 3.81 mm | - | - | - |
| 1778116593 | 21.67° C | 97% | 1013.6 hPa | 3.56 mm | - | - | - |
* Rain latest hour (hover to see other rain measurements)
** Current wind speed in m/s (hover to see current wind gust speed)